IGO1273 VOHS-OOMS

Flight info

Callsign IGO1273
Flight time N/A
Altitude 34000
Route TAMIV7 GODEP W28 PPN DCT SUGID N571 DOGET/N0456F360 N571 PARAR N767 ELIGO
Aircraft A21N/M-SDE3FGHIRWY/LB1

Departure

Time 2026-04-17 15:26
Airport Rajiv Gandhi International Airport (VOHS)

Arrival

Time N/A
Airport Muscat International Airport (OOMS)
Time Latitude Longitude Altitude Speed Heading
2026-04-17 15:11 17.23580 78.43365 2004 ft 0 kts 180°
2026-04-17 15:15 17.23584 78.43365 2004 ft 0 kts 180°
2026-04-17 15:15 17.23585 78.43365 2004 ft 1 kts 180°
2026-04-17 15:15 17.23600 78.43365 2003 ft 2 kts 180°
2026-04-17 15:15 17.23615 78.43365 2003 ft 2 kts 180°
2026-04-17 15:16 17.23630 78.43365 2002 ft 2 kts 180°
2026-04-17 15:16 17.23645 78.43365 2002 ft 2 kts 180°
2026-04-17 15:16 17.23661 78.43365 2001 ft 2 kts 180°
2026-04-17 15:16 17.23676 78.43365 2000 ft 1 kts 180°
2026-04-17 15:17 17.23683 78.43365 2000 ft 1 kts 158°
2026-04-17 15:17 17.23689 78.43359 2000 ft 0 kts 97°
2026-04-17 15:17 17.23689 78.43353 2000 ft 0 kts 86°
2026-04-17 15:17 17.23689 78.43349 2000 ft 0 kts 88°
2026-04-17 15:19 17.23689 78.43352 2000 ft 1 kts 88°
2026-04-17 15:19 17.23690 78.43378 2000 ft 5 kts 89°
2026-04-17 15:19 17.23691 78.43430 2001 ft 9 kts 89°
2026-04-17 15:20 17.23692 78.43548 2004 ft 19 kts 89°
2026-04-17 15:20 17.23693 78.43675 2009 ft 12 kts 98°
2026-04-17 15:20 17.23628 78.43706 2013 ft 14 kts 178°
2026-04-17 15:20 17.23499 78.43708 2016 ft 22 kts 178°
2026-04-17 15:21 17.23346 78.43707 2020 ft 19 kts 188°
2026-04-17 15:21 17.23218 78.43701 2023 ft 17 kts 181°
2026-04-17 15:21 17.23105 78.43684 2024 ft 15 kts 227°
2026-04-17 15:21 17.23089 78.43560 2020 ft 18 kts 270°
2026-04-17 15:22 17.23089 78.43389 2015 ft 28 kts 269°
2026-04-17 15:22 17.23089 78.43179 2009 ft 28 kts 270°
2026-04-17 15:22 17.23088 78.42964 2002 ft 30 kts 270°
2026-04-17 15:22 17.23085 78.42745 1991 ft 28 kts 268°
2026-04-17 15:23 17.23082 78.42533 1983 ft 29 kts 269°
2026-04-17 15:23 17.23079 78.42318 1975 ft 29 kts 268°
2026-04-17 15:23 17.23075 78.42103 1967 ft 29 kts 269°
2026-04-17 15:23 17.23074 78.41884 1961 ft 30 kts 269°
2026-04-17 15:24 17.23073 78.41671 1959 ft 28 kts 269°
2026-04-17 15:24 17.23068 78.41475 1959 ft 26 kts 269°
2026-04-17 15:24 17.23065 78.41328 1960 ft 17 kts 266°
2026-04-17 15:24 17.23006 78.41247 1963 ft 13 kts 189°
2026-04-17 15:25 17.22925 78.41263 1967 ft 13 kts 147°
2026-04-17 15:25 17.22862 78.41375 1970 ft 25 kts 94°
2026-04-17 15:25 17.22866 78.41799 1966 ft 92 kts 88°
2026-04-17 15:25 17.22878 78.42663 1989 ft 144 kts 88°
2026-04-17 15:26 17.22895 78.43857 2032 ft 182 kts 89°
2026-04-17 15:26 17.22920 78.45183 2444 ft 184 kts 89°
2026-04-17 15:26 17.22949 78.46538 2857 ft 192 kts 91°
2026-04-17 15:26 17.22967 78.47949 3440 ft 198 kts 91°
2026-04-17 15:27 17.22978 78.49388 3980 ft 198 kts 91°
2026-04-17 15:27 17.22996 78.50868 4194 ft 210 kts 89°
2026-04-17 15:27 17.23380 78.52361 4375 ft 226 kts 62°
2026-04-17 15:27 17.24548 78.53579 4516 ft 248 kts 30°
2026-04-17 15:28 17.26255 78.54027 4762 ft 265 kts
2026-04-17 15:28 17.28112 78.53942 5224 ft 268 kts 360°
2026-04-17 15:28 17.29993 78.53868 5751 ft 268 kts
2026-04-17 15:28 17.31834 78.53801 6273 ft 269 kts 356°
2026-04-17 15:29 17.33579 78.53258 6724 ft 274 kts 329°
2026-04-17 15:29 17.34900 78.51958 7199 ft 277 kts 304°
2026-04-17 15:29 17.35583 78.50088 7671 ft 281 kts 277°
2026-04-17 15:29 17.35386 78.48050 8075 ft 286 kts 250°
2026-04-17 15:30 17.34374 78.46251 8347 ft 296 kts 232°
2026-04-17 15:30 17.33309 78.44431 8761 ft 300 kts 251°
2026-04-17 15:30 17.33086 78.42292 9216 ft 300 kts 277°